Location: Rometta
(44.2000°N, 10.0500°E)
Time: 16:23:52
(UTC+00:00)

ATLAS 3B R/B - Pass Details

Date: 20 January 2021
Orbit: 1006 x 1189 km, 63.8° (Epoch: 26 February)

Event Time Altitude Azimuth Distance (km) Brightness Sun altitude
Rises 17:00:00 0° 320° (NW) 3,877 5.9 -8.5°
Reaches altitude 10° 17:02:39 10° 316° (NW) 2,944 5.4 -8.9°
Maximum altitude 17:09:26 54° 242° (WSW) 1,350 3.7 -10.1°
Drops below altitude 10° 17:16:28 10° 167° (SSE) 3,053 5.1 -11.3°
Sets 17:19:16 0° 163° (SSE) 4,030 5.7 -11.7°
